Printer-friendly version

IAU Minor Planet Center

Minor Planet Center

MPEC 2005-T10 : 2005 SE71

The following Minor Planet Electronic Circular may be linked-to from your own Web pages, but must not otherwise be redistributed electronically.


Read MPEC 2005-T09 Read MPEC 2005-T11


M.P.E.C. 2005-T10                                Issued 2005 Oct. 1, 17:20 UT

     The Minor Planet Electronic Circulars contain information on unusual
         minor planets and routine data on comets.  They are published
   on behalf of Commission 20 of the International Astronomical Union by the
          Minor Planet Center, Smithsonian Astrophysical Observatory,
                          Cambridge, MA 02138, U.S.A.

                  Supported in part by the Brinson Foundation
             Prepared using the Tamkin Foundation Computer Network

                              MPC@CFA.HARVARD.EDU
          URL http://cfa-www.harvard.edu/iau/mpc.html  ISSN 1523-6714

                                   2005 SE71

Observations:
     K05S71E* C2005 09 30.46700 07 47 14.32 +21 31 23.5          20.1 V ET010G96
     K05S71E  C2005 09 30.47035 07 47 15.48 +21 31 29.9          20.0 V ET010G96
     K05S71E  C2005 09 30.47373 07 47 16.67 +21 31 36.5          20.1 V ET010G96
     K05S71E  C2005 09 30.47713 07 47 17.86 +21 31 43.2          19.8 V ET010G96
     K05S71E  C2005 09 30.49655 07 47 24.68 +21 32 20.6          19.8 V ET010G96
     K05S71E  C2005 09 30.49877 07 47 25.44 +21 32 24.8          19.7 V ET010G96
     K05S71E  C2005 09 30.49988 07 47 25.87 +21 32 26.8          19.6 V ET010G96
     K05S71E  C2005 10 01.10571 07 51 01.50 +21 51 30.4          18.9 R ET010118
     K05S71E  C2005 10 01.10685 07 51 01.87 +21 51 33.0          18.5 R ET010118
     K05S71E  C2005 10 01.11264 07 51 03.93 +21 51 43.5          18.9 R ET010118
     K05S71E  C2005 10 01.43262 07 52 58.96 +22 01 48.9          19.2 R ET010651
     K05S71E  C2005 10 01.43742 07 53 00.64 +22 01 57.0          19.2 R ET010651
     K05S71E  C2005 10 01.46896 07 53 11.86 +22 02 56.3          19.3 V ET010G96
     K05S71E  C2005 10 01.47455 07 53 13.84 +22 03 06.9          19.4 V ET010G96
     K05S71E  C2005 10 01.48017 07 53 15.86 +22 03 17.5          19.4 V ET010G96
     K05S71E  C2005 10 01.48582 07 53 17.84 +22 03 28.1          19.4 V ET010G96

Observer details:
118 Modra.  Observers S. Gajdos, J. Vilagi.  0.6-m f/5.5 reflector + CCD.
651 Grasslands Observatory, Tucson.  Observer J. E. McGaha.  0.62-m f/5.1
    Newtonian reflector + CCD.
G96 Mt. Lemmon Survey.  Observer E. J. Christensen.  Measurers E. C. Beshore,
    C. M. Casey, E. J. Christensen, G. J. Garradd, A. D. Grauer, R. E. Hill,
    S. M. Larson, R. H. McNaught, R. A. Kowalski.  1.5-m reflector + CCD.

Orbital elements:
2005 SE71                                                            PHA 0.009A
Epoch 2005 Sept. 27.0 TT = JDT 2453640.5                MPC
M 295.56137              (2000.0)            P               Q
n   0.91187653     Peri.   83.46964     -0.48334679     -0.83209422
a   1.0532028      Node    39.49100     +0.53317129     -0.52625624
e   0.1955293      Incl.   25.32383     +0.69433728     -0.17513874
P   1.08           H   18.3           G   0.15
From 16 observations 2005 Sept. 30-Oct. 1.

Ephemeris:
2005 SE71                a,e,i = 1.05, 0.20, 25                  q = 0.8473
Date    TT    R. A. (2000) Decl.     Delta      r     Elong.  Phase     V
2005 09 27    07 27.31   +19 38.4    0.567    1.001    73.4    73.7    19.6
2005 10 07    08 27.61   +24 43.9    0.550    0.968    70.6    76.9    19.6
2005 10 17    09 34.84   +28 09.1    0.555    0.936    67.4    79.4    19.7
2005 10 27    10 43.28   +29 06.6    0.582    0.908    64.2    80.5    19.7
2005 11 06    11 46.32   +27 39.0    0.628    0.883    61.3    80.1    19.8

Brian G. Marsden             (C) Copyright 2005 MPC           M.P.E.C. 2005-T10

Read MPEC 2005-T09 Read MPEC 2005-T11


Our Web policy. Index to the CBAT/MPC/ICQ pages.


Valid HTML 4.01!